Temp
51 50 50 49 49 50 51 51 49 48 49 49 49 49 49 49 48 48 48 47 47 47 47 47 47 46 45 43 44 44 44 44 43 43 42 43 43 43 43 43 43 43 42 42 43 43 43 42 42 42 42 41 41 40 40 40 40 40 41 42 42 41 40 38 37 37 37 37 37
51 50 49 47 47 49 50 50 49 49 49 49 49 49 48 48 48 47 47 46 47 47 46 47 45 44 44 44 43 43 44 44 43 43 43 43 43 44 43 43 43 42 42 43 43 44 44 42 42 42 42 42 41 40 40 40 39 39 40 40 40 39 38 37 36 36 36 36 36
51 51 50 50 49 50 50 50 49 48 47 47 48 48 48 48 48 47 47 46 45 45 45 46 45 44 43 44 43 43 43 43 43 43 43 43 43 43 43 42 42 42 41 41 43 43 42 41 41 41 42 42 40 40 40 39 39 39 39 38 38 38 38 38 37 36 36 37 36
51 51 51 50 49 48 48 49 47 47 46 47 47 47 47 47 47 47 46 44 44 45 45 45 45 44 43 43 43 43 43 42 43 43 43 42 42 42 42 41 41 41 41 41 41 41 40 40 41 41 41 39 39 39 39 40 38 39 39 39 38 38 38 38 38 38 38 38 37
50 50 49 48 47 47 47 47 47 47 47 47 47 47 47 47 46 45 45 45 45 46 45 44 45 44 43 43 43 43 43 42 41 42 42 42 42 41 41 41 41 41 41 41 41 42 41 41 41 41 40 38 39 40 39 38 38 38 39 39 39 38 38 38 38 38 38 37 36
49 48 48 47 47 47 47 47 47 47 48 47 47 46 46 47 46 46 45 45 45 44 44 43 43 43 42 43 43 43 42 42 41 42 42 42 41 41 41 41 42 41 41 41 41 42 41 40 41 41 41 40 39 38 38 37 37 37 37 38 38 38 37 37 37 37 36 35 34
49 49 49 49 48 48 48 48 48 48 48 47 46 45 45 45 45 44 44 44 44 43 43 43 43 43 43 43 43 43 42 42 41 42 42 41 41 41 41 41 41 41 41 42 42 41 41 41 43 42 41 40 40 39 37 36 37 36 36 36 37 37 36 35 36 35 34 33 33
50 50 50 50 50 50 49 49 49 48 47 47 45 45 45 45 45 44 43 43 43 43 43 43 44 44 44 43 43 43 42 42 41 41 40 40 40 40 41 41 41 41 41 42 42 42 43 45 45 43 40 40 40 39 37 36 36 35 35 34 35 35 34 34 34 34 34 34 34
50 50 50 50 50 51 51 50 49 48 47 46 45 45 45 45 45 44 44 44 43 43 43 44 44 44 43 43 43 42 42 42 41 40 40 40 40 41 41 40 41 41 42 42 44 45 46 46 44 42 40 40 40 39 38 37 37 35 34 33 33 33 33 34 34 34 34 34 34
50 50 50 50 50 51 51 49 48 48 47 46 45 44 44 43 43 44 44 43 43 43 43 43 43 43 42 42 42 42 42 41 41 41 41 40 41 41 41 41 42 42 43 45 45 45 45 43 42 40 40 40 39 39 39 38 37 36 34 34 34 34 34 35 34 34 34 34 34
51 51 51 50 51 50 50 49 48 47 47 46 45 44 43 43 43 43 43 43 43 43 43 43 42 42 42 42 42 42 42 42 41 41 41 41 41 42 42 42 42 43 45 46 45 44 43 42 40 40 40 40 41 40 39 38 37 36 35 34 34 35 35 35 34 34 33 33 33
52 52 51 51 51 51 50 49 48 47 47 46 46 45 44 44 44 43 43 43 44 44 43 43 43 43 43 42 42 42 42 42 42 42 41 41 42 42 43 43 44 44 45 44 43 42 41 40 39 38 38 39 39 38 37 37 36 35 35 35 35 34 34 34 33 33 33 33 33
52 52 51 51 51 50 49 48 48 47 47 47 46 45 45 45 44 44 44 44 44 43 43 42 43 43 42 42 42 42 42 42 42 42 42 42 42 43 44 43 44 43 42 41 40 40 39 38 38 38 37 37 36 36 36 36 36 35 35 35 34 34 33 33 33 33 33 32 33
52 52 51 51 51 50 49 48 47 47 47 46 46 45 45 45 44 44 44 44 44 43 43 42 42 42 42 42 42 42 42 42 42 43 42 42 42 43 43 42 42 41 40 39 39 39 39 38 37 37 37 37 36 35 35 36 36 35 35 35 34 34 33 33 33 33 33 33 32
52 52 51 51 50 49 48 47 47 47 46 46 45 45 45 45 44 43 43 44 43 43 42 42 41 41 42 43 43 43 43 43 43 42 42 41 41 41 40 40 40 40 40 39 39 39 39 38 38 37 37 37 36 36 36 36 36 35 35 34 34 34 34 34 34 33 33 33 32
52 52 52 51 50 49 48 47 47 47 46 46 45 45 45 44 43 43 43 43 42 42 42 42 41 42 42 43 43 43 43 43 42 41 40 39 39 39 39 39 39 39 39 39 38 38 38 38 37 37 37 37 37 36 36 36 35 35 34 34 34 35 35 35 34 33 32 32 31
53 53 52 52 50 49 48 47 47 47 46 46 45 45 44 44 43 43 42 42 42 42 42 42 42 42 42 42 42 43 43 42 41 40 39 39 39 39 39 39 38 38 38 38 38 38 38 37 37 38 38 38 38 37 36 35 35 34 35 35 36 36 36 35 33 32 31 31 30
53 53 53 52 51 50 49 48 47 47 46 46 45 44 44 44 43 43 42 42 42 42 42 42 42 42 42 42 42 41 41 41 40 39 39 39 39 39 39 38 38 38 38 39 39 39 38 38 39 39 40 40 39 38 37 35 35 36 36 37 37 36 35 33 32 31 31 31 31
54 54 53 53 52 51 49 48 48 47 47 46 45 45 44 44 44 44 43 42 42 43 43 43 42 42 42 42 41 40 39 39 39 39 39 39 39 39 39 38 38 39 39 40 40 40 40 41 40 40 40 40 39 38 37 37 37 37 37 36 35 34 33 32 32 31 31 32 32
54 54 54 53 52 51 50 49 48 48 47 46 45 45 45 45 45 45 44 43 43 43 43 43 42 41 41 41 40 39 38 38 38 39 39 39 39 39 39 39 39 39 40 41 41 40 40 40 40 39 39 38 38 37 36 36 36 36 35 33 32 32 32 32 32 32 32 32 32
54 54 54 53 52 51 50 49 48 47 47 46 46 46 46 46 45 45 45 44 44 43 43 42 41 41 40 40 39 39 38 37 38 39 39 39 39 39 39 39 39 40 40 40 39 39 39 39 38 37 37 36 36 35 34 34 33 33 32 31 31 31 32 31 31 31 31 32 32
54 54 54 53 52 52 50 49 48 47 46 46 46 46 46 46 46 46 45 44 44 43 42 41 40 40 39 39 39 39 38 37 38 38 38 38 38 38 38 39 39 39 38 38 37 37 37 37 36 36 35 34 34 33 33 32 31 31 30 30 30 31 31 31 31 31 31 31 31
54 54 54 53 52 51 49 49 48 47 47 46 47 47 47 47 46 46 45 44 42 41 40 40 39 39 39 39 39 39 38 37 37 37 37 38 38 38 38 38 39 38 37 35 35 35 35 34 34 34 33 33 32 32 32 31 31 30 30 29 29 30 30 30 30 30 30 31 31
55 54 54 53 52 51 50 49 48 47 47 47 47 47 47 47 46 45 43 42 41 40 40 39 39 39 39 39 39 39 38 38 38 38 38 38 37 37 37 37 38 37 36 34 35 35 34 33 32 32 31 31 31 31 31 31 30 29 29 29 29 29 28 29 29 30 30 30 31
55 54 54 53 53 51 50 49 48 48 48 48 48 47 47 46 45 43 42 41 40 40 40 40 39 39 39 39 39 39 39 38 38 38 38 38 37 37 37 38 38 37 35 35 37 38 37 35 34 32 30 30 30 30 30 30 29 29 29 29 28 28 28 28 28 29 30 30 30
54 54 54 53 52 51 50 49 49 49 48 48 47 47 46 45 43 42 41 41 40 40 41 40 40 39 38 38 39 38 38 38 38 38 38 38 37 37 38 39 37 36 36 37 38 38 38 38 36 33 30 29 29 29 28 28 29 29 28 28 28 27 27 27 28 28 29 30 30
54 54 53 53 52 51 50 50 49 49 48 47 47 46 44 43 42 42 41 41 41 41 41 41 40 39 37 38 39 39 38 38 38 38 38 37 37 36 36 36 35 35 36 38 38 38 38 38 38 36 32 28 28 28 27 27 27 27 27 27 26 26 27 27 27 28 28 29 29
53 53 53 52 52 51 51 50 49 48 47 46 45 44 43 43 43 42 42 41 41 41 40 40 40 39 38 38 39 39 39 38 38 37 37 37 36 36 35 34 33 34 36 38 38 38 38 38 38 37 34 29 27 27 27 26 26 26 26 25 25 26 26 27 27 28 28 28 28
53 53 52 52 52 51 51 50 48 47 46 45 44 44 44 44 43 43 42 42 41 41 40 40 40 39 39 39 39 39 39 39 38 37 37 36 36 35 34 33 32 34 36 38 38 38 38 38 37 37 36 34 29 26 25 25 25 24 24 24 25 25 26 26 27 27 27 26 27
53 52 52 52 51 50 50 48 47 46 45 45 45 45 44 43 43 43 42 42 41 41 40 40 40 40 40 40 39 39 39 39 38 37 37 37 36 34 33 33 32 34 36 38 38 38 37 37 37 37 36 35 30 26 24 23 23 24 24 24 25 25 26 26 26 26 26 25 26
53 52 51 51 50 49 48 47 46 46 45 45 46 45 44 43 43 42 41 41 41 40 40 41 41 41 41 39 39 39 38 38 37 37 37 37 35 34 33 32 32 33 36 38 38 37 37 37 36 36 36 35 30 26 23 23 23 23 24 24 25 25 26 26 26 25 25 25 25
52 52 51 50 49 49 48 47 47 46 46 46 46 45 44 43 42 41 41 40 41 41 41 42 42 41 40 39 39 39 38 37 37 37 37 36 35 34 33 32 31 32 34 38 37 37 37 37 36 36 36 35 31 26 24 23 23 24 24 24 25 25 26 26 25 25 25 25 25
52 51 50 50 49 49 49 48 47 47 46 46 45 45 44 42 41 41 41 41 41 42 42 42 42 41 40 39 39 39 38 37 37 36 36 36 35 34 32 31 31 33 35 38 37 37 37 36 36 36 36 35 30 26 23 23 23 23 24 24 25 25 25 25 25 25 25 25 24
51 50 50 49 49 49 49 48 48 47 46 45 44 43 43 42 41 41 42 41 42 42 42 42 42 41 40 39 39 38 37 36 36 36 36 35 34 33 32 31 31 34 37 37 37 36 36 36 36 36 36 35 29 25 23 23 23 23 23 24 24 25 25 25 25 25 25 25 24
51 50 49 49 49 49 49 49 48 46 45 44 43 42 42 42 42 42 42 41 42 42 42 41 40 40 39 38 38 37 36 36 36 35 35 34 34 33 32 31 31 34 37 37 36 36 36 36 36 36 35 32 26 24 22 23 22 23 23 23 24 24 24 24 24 25 25 25 24
50 49 48 48 49 49 49 49 47 46 44 43 42 42 42 42 42 42 42 41 42 42 41 40 39 39 38 38 37 36 36 36 36 35 34 34 34 33 32 31 30 33 36 36 36 36 36 36 36 35 33 28 24 22 22 21 21 22 22 23 23 23 24 24 24 25 25 24 24
50 49 48 48 49 49 48 47 46 45 44 42 42 42 42 43 43 43 42 42 42 41 40 39 39 38 38 37 37 36 35 36 35 35 34 34 33 33 32 30 30 32 34 36 36 36 36 36 35 34 31 25 22 21 21 20 21 21 22 22 22 22 22 23 24 24 24 24 25
51 50 49 48 49 48 47 45 44 44 43 42 42 42 42 43 43 42 42 40 41 40 39 38 38 38 38 37 37 36 36 35 35 35 34 34 33 32 31 30 30 31 33 36 36 36 36 36 35 33 30 23 21 20 20 20 20 20 21 21 21 21 21 22 22 22 23 24 27
52 51 50 49 48 47 46 45 44 43 42 42 42 42 42 42 42 41 41 40 40 40 39 38 38 38 37 37 36 36 35 35 35 34 34 33 33 32 31 30 30 30 32 35 36 36 36 36 35 34 30 24 21 20 19 19 19 19 20 19 19 20 20 20 21 21 22 22 29
51 51 50 49 47 46 46 45 44 43 42 42 42 42 42 42 41 41 40 40 40 39 39 38 38 38 37 36 35 35 35 35 34 34 33 33 33 34 33 30 30 30 31 35 36 36 36 36 35 34 31 24 20 19 19 19 19 19 19 18 18 19 19 19 20 20 20 21 25
50 49 48 48 47 46 46 45 44 43 42 42 42 42 41 40 40 40 40 40 39 39 39 38 38 37 36 35 35 35 35 35 34 33 33 32 33 34 34 30 30 30 31 34 35 36 36 36 36 34 31 24 20 19 19 19 19 19 18 18 18 18 18 19 19 19 20 20 21
MSLP
1023.00 1023.12 1023.28 1023.40 1023.52 1023.64 1023.72 1023.84 1023.96 1024.04 1024.12 1024.28 1024.48 1024.60 1024.72 1024.84 1025.00 1025.12 1025.12 1025.16 1025.28 1025.28 1025.28 1025.28 1025.28 1025.28 1025.32 1025.36 1025.40 1025.40 1025.40 1025.44 1025.48 1025.52 1025.56 1025.60 1025.60 1025.64 1025.68 1025.68 1025.72 1025.76 1025.80 1025.84 1025.84 1025.84 1025.84 1025.84 1025.84 1025.84 1025.88 1025.88 1025.96 1026.00 1025.96 1025.88 1025.92 1025.96 1026.00 1026.04 1026.08 1026.12 1026.20 1026.28 1026.36 1026.40 1026.40 1026.36 1026.36
1023.04 1023.16 1023.28 1023.40 1023.52 1023.64 1023.72 1023.84 1023.96 1024.08 1024.16 1024.28 1024.40 1024.52 1024.64 1024.80 1025.00 1025.08 1025.16 1025.24 1025.28 1025.28 1025.28 1025.28 1025.32 1025.36 1025.40 1025.40 1025.32 1025.32 1025.40 1025.40 1025.48 1025.52 1025.52 1025.56 1025.56 1025.56 1025.56 1025.64 1025.68 1025.72 1025.80 1025.84 1025.84 1025.84 1025.84 1025.84 1025.84 1025.88 1025.88 1025.88 1025.92 1025.96 1025.92 1025.84 1025.88 1026.00 1026.04 1026.12 1026.12 1026.12 1026.24 1026.36 1026.40 1026.40 1026.40 1026.40 1026.36
1023.08 1023.16 1023.28 1023.40 1023.56 1023.68 1023.88 1024.00 1024.12 1024.24 1024.28 1024.36 1024.36 1024.44 1024.56 1024.72 1024.88 1025.00 1025.12 1025.24 1025.28 1025.28 1025.36 1025.40 1025.40 1025.40 1025.40 1025.40 1025.36 1025.32 1025.32 1025.40 1025.40 1025.44 1025.48 1025.56 1025.56 1025.56 1025.60 1025.64 1025.68 1025.72 1025.76 1025.80 1025.80 1025.80 1025.80 1025.84 1025.84 1025.84 1025.84 1025.84 1025.88 1025.96 1025.92 1025.88 1025.92 1026.00 1026.08 1026.12 1026.12 1026.16 1026.24 1026.32 1026.40 1026.40 1026.40 1026.40 1026.40
1023.12 1023.24 1023.40 1023.56 1023.68 1023.84 1024.00 1024.08 1024.20 1024.28 1024.32 1024.36 1024.40 1024.48 1024.56 1024.68 1024.80 1024.96 1025.08 1025.20 1025.24 1025.28 1025.40 1025.40 1025.40 1025.40 1025.40 1025.40 1025.40 1025.36 1025.36 1025.36 1025.36 1025.40 1025.48 1025.52 1025.56 1025.56 1025.60 1025.64 1025.68 1025.72 1025.72 1025.68 1025.72 1025.72 1025.72 1025.76 1025.76 1025.76 1025.80 1025.84 1025.88 1025.96 1025.96 1025.92 1025.92 1026.00 1026.04 1026.12 1026.12 1026.16 1026.24 1026.28 1026.32 1026.32 1026.32 1026.32 1026.32
1023.32 1023.40 1023.56 1023.68 1023.80 1023.88 1024.00 1024.08 1024.20 1024.28 1024.32 1024.36 1024.40 1024.52 1024.60 1024.72 1024.80 1024.96 1025.08 1025.20 1025.28 1025.32 1025.36 1025.36 1025.40 1025.40 1025.40 1025.36 1025.40 1025.40 1025.40 1025.36 1025.40 1025.40 1025.40 1025.48 1025.52 1025.52 1025.56 1025.56 1025.64 1025.64 1025.64 1025.64 1025.68 1025.68 1025.68 1025.68 1025.68 1025.68 1025.72 1025.80 1025.84 1025.84 1025.84 1025.92 1025.92 1025.96 1026.00 1026.00 1026.08 1026.12 1026.20 1026.24 1026.24 1026.24 1026.24 1026.28 1026.28
1023.56 1023.64 1023.68 1023.72 1023.80 1023.88 1024.00 1024.04 1024.12 1024.24 1024.28 1024.36 1024.48 1024.60 1024.72 1024.76 1024.84 1024.96 1025.08 1025.20 1025.28 1025.28 1025.28 1025.36 1025.36 1025.36 1025.40 1025.36 1025.40 1025.40 1025.40 1025.40 1025.40 1025.40 1025.40 1025.40 1025.44 1025.48 1025.52 1025.56 1025.56 1025.56 1025.56 1025.56 1025.56 1025.56 1025.56 1025.64 1025.64 1025.64 1025.68 1025.68 1025.72 1025.80 1025.84 1025.84 1025.88 1025.96 1026.00 1026.04 1026.04 1026.08 1026.12 1026.12 1026.16 1026.16 1026.20 1026.28 1026.28
1023.56 1023.68 1023.72 1023.76 1023.76 1023.84 1023.96 1024.00 1024.12 1024.20 1024.28 1024.40 1024.56 1024.72 1024.76 1024.80 1024.84 1025.00 1025.08 1025.12 1025.16 1025.24 1025.28 1025.32 1025.32 1025.32 1025.36 1025.40 1025.40 1025.40 1025.40 1025.40 1025.40 1025.36 1025.36 1025.40 1025.44 1025.44 1025.48 1025.56 1025.56 1025.56 1025.56 1025.52 1025.52 1025.52 1025.52 1025.56 1025.56 1025.60 1025.64 1025.68 1025.68 1025.76 1025.80 1025.80 1025.84 1025.92 1026.04 1026.08 1026.00 1026.00 1026.04 1026.12 1026.12 1026.12 1026.20 1026.28 1026.28
1023.44 1023.64 1023.72 1023.76 1023.80 1023.84 1023.88 1024.00 1024.12 1024.20 1024.32 1024.44 1024.56 1024.68 1024.72 1024.76 1024.84 1024.92 1025.00 1025.08 1025.12 1025.16 1025.20 1025.24 1025.24 1025.28 1025.32 1025.36 1025.40 1025.40 1025.44 1025.44 1025.40 1025.40 1025.40 1025.40 1025.44 1025.48 1025.52 1025.52 1025.56 1025.52 1025.48 1025.44 1025.44 1025.40 1025.40 1025.32 1025.40 1025.48 1025.56 1025.64 1025.68 1025.68 1025.72 1025.76 1025.84 1025.92 1026.04 1026.08 1026.00 1026.00 1026.00 1026.04 1026.04 1026.08 1026.12 1026.20 1026.20
1023.36 1023.56 1023.68 1023.76 1023.80 1023.84 1023.84 1023.96 1024.08 1024.20 1024.28 1024.40 1024.48 1024.56 1024.56 1024.60 1024.72 1024.80 1024.88 1024.96 1025.00 1025.04 1025.08 1025.12 1025.12 1025.20 1025.28 1025.36 1025.40 1025.40 1025.44 1025.48 1025.48 1025.48 1025.48 1025.44 1025.44 1025.48 1025.52 1025.52 1025.52 1025.48 1025.40 1025.36 1025.36 1025.32 1025.28 1025.28 1025.32 1025.40 1025.52 1025.56 1025.64 1025.68 1025.68 1025.68 1025.76 1025.88 1026.00 1026.04 1026.04 1026.00 1026.00 1026.00 1026.00 1026.00 1026.04 1026.12 1026.12
1023.28 1023.48 1023.64 1023.76 1023.80 1023.84 1023.88 1023.96 1024.00 1024.08 1024.16 1024.28 1024.36 1024.40 1024.44 1024.48 1024.56 1024.64 1024.72 1024.84 1024.88 1024.96 1025.00 1025.04 1025.12 1025.16 1025.28 1025.36 1025.40 1025.40 1025.44 1025.52 1025.52 1025.48 1025.44 1025.44 1025.44 1025.44 1025.44 1025.44 1025.40 1025.40 1025.40 1025.32 1025.36 1025.40 1025.40 1025.40 1025.44 1025.52 1025.56 1025.56 1025.60 1025.64 1025.68 1025.68 1025.72 1025.84 1025.96 1026.00 1026.00 1026.00 1026.00 1025.96 1025.96 1025.96 1026.00 1026.04 1026.04
1023.16 1023.36 1023.56 1023.68 1023.80 1023.84 1023.84 1023.92 1023.96 1024.00 1024.08 1024.16 1024.28 1024.28 1024.36 1024.40 1024.48 1024.56 1024.60 1024.72 1024.80 1024.88 1024.92 1024.96 1025.04 1025.12 1025.16 1025.28 1025.32 1025.36 1025.36 1025.40 1025.40 1025.44 1025.40 1025.40 1025.40 1025.40 1025.36 1025.36 1025.36 1025.36 1025.40 1025.40 1025.44 1025.44 1025.48 1025.48 1025.56 1025.60 1025.60 1025.56 1025.56 1025.60 1025.64 1025.68 1025.72 1025.84 1025.88 1025.88 1025.92 1025.96 1026.00 1025.96 1025.96 1025.96 1025.96 1025.96 1025.96
1023.04 1023.24 1023.40 1023.56 1023.68 1023.76 1023.84 1023.92 1023.96 1024.00 1024.04 1024.12 1024.16 1024.24 1024.28 1024.32 1024.40 1024.48 1024.56 1024.60 1024.72 1024.80 1024.84 1024.84 1024.92 1025.00 1025.08 1025.12 1025.20 1025.28 1025.28 1025.28 1025.36 1025.36 1025.36 1025.36 1025.32 1025.28 1025.28 1025.28 1025.36 1025.40 1025.48 1025.48 1025.44 1025.40 1025.44 1025.52 1025.56 1025.64 1025.64 1025.60 1025.56 1025.60 1025.64 1025.68 1025.72 1025.80 1025.84 1025.84 1025.84 1025.92 1025.96 1026.00 1025.96 1025.92 1025.88 1025.84 1025.84
1022.96 1023.12 1023.36 1023.48 1023.56 1023.68 1023.84 1023.88 1023.88 1023.92 1024.00 1024.04 1024.12 1024.16 1024.20 1024.28 1024.28 1024.36 1024.44 1024.56 1024.64 1024.72 1024.72 1024.76 1024.80 1024.84 1024.96 1025.08 1025.12 1025.16 1025.20 1025.24 1025.28 1025.28 1025.28 1025.28 1025.28 1025.28 1025.28 1025.36 1025.44 1025.48 1025.48 1025.44 1025.40 1025.40 1025.40 1025.52 1025.56 1025.60 1025.64 1025.64 1025.60 1025.56 1025.60 1025.60 1025.68 1025.68 1025.80 1025.84 1025.88 1025.92 1025.96 1025.92 1025.92 1025.88 1025.84 1025.84 1025.80
1022.84 1023.08 1023.28 1023.40 1023.56 1023.68 1023.80 1023.84 1023.84 1023.84 1023.88 1024.00 1024.04 1024.12 1024.12 1024.16 1024.24 1024.28 1024.36 1024.44 1024.56 1024.60 1024.68 1024.72 1024.72 1024.76 1024.84 1024.92 1025.00 1025.08 1025.12 1025.12 1025.16 1025.24 1025.24 1025.24 1025.28 1025.28 1025.36 1025.40 1025.40 1025.40 1025.36 1025.36 1025.28 1025.32 1025.40 1025.44 1025.52 1025.56 1025.56 1025.56 1025.56 1025.52 1025.52 1025.52 1025.56 1025.60 1025.68 1025.80 1025.84 1025.88 1025.88 1025.88 1025.88 1025.84 1025.84 1025.84 1025.80
1022.84 1023.00 1023.16 1023.32 1023.48 1023.64 1023.72 1023.76 1023.72 1023.76 1023.84 1023.92 1023.96 1024.00 1024.04 1024.12 1024.16 1024.20 1024.28 1024.36 1024.40 1024.52 1024.56 1024.64 1024.72 1024.72 1024.72 1024.76 1024.84 1024.92 1025.00 1025.04 1025.08 1025.12 1025.20 1025.24 1025.28 1025.32 1025.32 1025.32 1025.28 1025.28 1025.28 1025.28 1025.24 1025.24 1025.28 1025.32 1025.40 1025.40 1025.48 1025.52 1025.52 1025.44 1025.40 1025.40 1025.44 1025.52 1025.56 1025.68 1025.72 1025.76 1025.80 1025.84 1025.84 1025.84 1025.84 1025.84 1025.84
1022.84 1022.96 1023.08 1023.24 1023.40 1023.56 1023.64 1023.64 1023.64 1023.68 1023.68 1023.80 1023.84 1023.92 1023.96 1024.00 1024.08 1024.12 1024.20 1024.28 1024.36 1024.44 1024.52 1024.56 1024.68 1024.68 1024.68 1024.68 1024.72 1024.80 1024.88 1025.00 1025.04 1025.12 1025.20 1025.28 1025.28 1025.28 1025.24 1025.24 1025.20 1025.20 1025.20 1025.20 1025.20 1025.16 1025.20 1025.24 1025.28 1025.32 1025.36 1025.40 1025.44 1025.44 1025.40 1025.40 1025.40 1025.48 1025.56 1025.60 1025.64 1025.68 1025.68 1025.68 1025.80 1025.84 1025.84 1025.84 1025.84
1022.76 1022.88 1023.00 1023.12 1023.28 1023.40 1023.48 1023.48 1023.52 1023.56 1023.60 1023.68 1023.72 1023.80 1023.84 1023.88 1024.00 1024.08 1024.12 1024.20 1024.32 1024.40 1024.48 1024.56 1024.56 1024.60 1024.64 1024.64 1024.68 1024.72 1024.84 1024.92 1025.00 1025.08 1025.12 1025.16 1025.16 1025.16 1025.16 1025.16 1025.16 1025.16 1025.16 1025.16 1025.20 1025.16 1025.16 1025.20 1025.16 1025.20 1025.24 1025.28 1025.36 1025.40 1025.40 1025.40 1025.40 1025.40 1025.48 1025.48 1025.52 1025.52 1025.56 1025.64 1025.72 1025.80 1025.84 1025.80 1025.76
1022.72 1022.80 1022.92 1023.04 1023.16 1023.28 1023.36 1023.32 1023.36 1023.40 1023.48 1023.56 1023.64 1023.68 1023.68 1023.80 1023.92 1024.00 1024.08 1024.12 1024.24 1024.36 1024.44 1024.48 1024.52 1024.52 1024.56 1024.60 1024.64 1024.72 1024.80 1024.84 1024.96 1025.00 1025.04 1025.04 1025.04 1025.08 1025.12 1025.12 1025.12 1025.08 1025.08 1025.08 1025.12 1025.12 1025.12 1025.12 1025.08 1025.04 1025.08 1025.12 1025.20 1025.28 1025.28 1025.28 1025.32 1025.36 1025.40 1025.40 1025.44 1025.48 1025.56 1025.64 1025.68 1025.72 1025.72 1025.68 1025.64
1022.60 1022.72 1022.84 1022.96 1023.00 1023.12 1023.16 1023.20 1023.20 1023.28 1023.36 1023.44 1023.52 1023.56 1023.64 1023.72 1023.84 1023.92 1024.00 1024.12 1024.16 1024.24 1024.32 1024.40 1024.44 1024.44 1024.48 1024.56 1024.60 1024.64 1024.72 1024.80 1024.84 1024.88 1024.88 1024.92 1024.92 1024.96 1025.00 1025.00 1025.00 1025.00 1025.00 1024.96 1024.96 1024.96 1024.96 1024.96 1024.92 1024.96 1025.00 1025.04 1025.12 1025.12 1025.20 1025.24 1025.28 1025.36 1025.40 1025.48 1025.52 1025.56 1025.60 1025.60 1025.60 1025.60 1025.56 1025.56 1025.52
1022.48 1022.56 1022.68 1022.76 1022.84 1022.92 1023.00 1023.00 1023.04 1023.12 1023.20 1023.28 1023.40 1023.48 1023.56 1023.64 1023.72 1023.84 1024.00 1024.04 1024.08 1024.12 1024.20 1024.28 1024.40 1024.40 1024.44 1024.48 1024.56 1024.60 1024.64 1024.72 1024.72 1024.72 1024.76 1024.76 1024.84 1024.84 1024.84 1024.88 1024.88 1024.84 1024.84 1024.80 1024.80 1024.80 1024.84 1024.84 1024.84 1024.92 1025.00 1025.04 1025.12 1025.20 1025.28 1025.36 1025.40 1025.44 1025.52 1025.56 1025.56 1025.56 1025.56 1025.56 1025.52 1025.48 1025.44 1025.40 1025.40
1022.32 1022.40 1022.48 1022.56 1022.68 1022.72 1022.84 1022.84 1022.92 1023.00 1023.12 1023.24 1023.32 1023.40 1023.48 1023.56 1023.68 1023.76 1023.84 1023.92 1024.00 1024.04 1024.12 1024.24 1024.32 1024.40 1024.40 1024.44 1024.56 1024.56 1024.56 1024.60 1024.60 1024.60 1024.64 1024.68 1024.72 1024.72 1024.72 1024.72 1024.72 1024.72 1024.72 1024.72 1024.76 1024.80 1024.84 1024.84 1024.88 1024.92 1025.00 1025.12 1025.20 1025.28 1025.40 1025.44 1025.52 1025.56 1025.56 1025.56 1025.56 1025.56 1025.52 1025.52 1025.44 1025.40 1025.40 1025.32 1025.28
1022.16 1022.24 1022.32 1022.40 1022.52 1022.56 1022.60 1022.72 1022.80 1022.88 1023.00 1023.12 1023.24 1023.28 1023.40 1023.48 1023.56 1023.64 1023.72 1023.84 1023.92 1024.00 1024.12 1024.20 1024.24 1024.28 1024.32 1024.36 1024.44 1024.48 1024.48 1024.52 1024.52 1024.52 1024.56 1024.56 1024.60 1024.56 1024.56 1024.56 1024.60 1024.72 1024.80 1024.88 1024.92 1024.92 1024.92 1024.96 1024.96 1025.00 1025.12 1025.20 1025.32 1025.40 1025.44 1025.52 1025.56 1025.60 1025.60 1025.60 1025.56 1025.52 1025.48 1025.44 1025.40 1025.40 1025.36 1025.28 1025.24
1022.00 1022.12 1022.16 1022.24 1022.32 1022.40 1022.48 1022.56 1022.72 1022.84 1022.92 1023.04 1023.12 1023.24 1023.28 1023.40 1023.48 1023.56 1023.68 1023.80 1023.88 1024.00 1024.04 1024.12 1024.12 1024.16 1024.20 1024.20 1024.28 1024.32 1024.40 1024.44 1024.48 1024.48 1024.48 1024.48 1024.52 1024.52 1024.48 1024.56 1024.64 1024.80 1024.92 1025.00 1025.00 1025.00 1025.00 1025.08 1025.08 1025.12 1025.20 1025.28 1025.40 1025.48 1025.56 1025.56 1025.60 1025.64 1025.68 1025.68 1025.60 1025.56 1025.52 1025.48 1025.40 1025.40 1025.32 1025.24 1025.12
1021.84 1021.96 1022.00 1022.08 1022.16 1022.28 1022.40 1022.52 1022.64 1022.76 1022.88 1022.96 1023.04 1023.12 1023.20 1023.28 1023.40 1023.52 1023.64 1023.76 1023.84 1023.92 1024.00 1024.04 1024.04 1024.08 1024.08 1024.08 1024.12 1024.16 1024.28 1024.40 1024.48 1024.48 1024.48 1024.44 1024.40 1024.44 1024.48 1024.56 1024.72 1024.88 1025.00 1025.08 1025.08 1025.08 1025.12 1025.16 1025.24 1025.28 1025.32 1025.40 1025.48 1025.56 1025.60 1025.64 1025.68 1025.68 1025.72 1025.72 1025.68 1025.64 1025.56 1025.52 1025.44 1025.36 1025.28 1025.16 1025.08
1021.68 1021.76 1021.84 1021.92 1022.08 1022.24 1022.36 1022.44 1022.56 1022.68 1022.72 1022.80 1022.88 1023.00 1023.08 1023.16 1023.32 1023.44 1023.60 1023.72 1023.84 1023.88 1023.92 1023.96 1024.00 1024.00 1024.00 1024.00 1024.04 1024.08 1024.12 1024.28 1024.36 1024.40 1024.44 1024.44 1024.40 1024.44 1024.56 1024.68 1024.84 1024.96 1025.08 1025.12 1025.12 1025.12 1025.12 1025.24 1025.32 1025.40 1025.48 1025.56 1025.60 1025.64 1025.68 1025.68 1025.72 1025.76 1025.80 1025.80 1025.76 1025.72 1025.68 1025.56 1025.44 1025.32 1025.24 1025.16 1025.04
1021.56 1021.64 1021.72 1021.84 1022.00 1022.12 1022.24 1022.32 1022.40 1022.44 1022.56 1022.60 1022.72 1022.84 1023.00 1023.12 1023.28 1023.40 1023.56 1023.68 1023.76 1023.84 1023.84 1023.84 1023.88 1023.92 1023.92 1023.96 1024.00 1024.00 1024.08 1024.12 1024.20 1024.28 1024.40 1024.40 1024.44 1024.56 1024.64 1024.76 1024.92 1025.08 1025.16 1025.16 1025.16 1025.20 1025.24 1025.28 1025.40 1025.48 1025.56 1025.64 1025.68 1025.76 1025.80 1025.80 1025.84 1025.84 1025.84 1025.84 1025.76 1025.72 1025.68 1025.60 1025.48 1025.36 1025.24 1025.12 1025.00
1021.40 1021.56 1021.64 1021.76 1021.92 1022.00 1022.08 1022.12 1022.16 1022.24 1022.32 1022.44 1022.60 1022.76 1022.88 1023.00 1023.16 1023.32 1023.48 1023.60 1023.68 1023.68 1023.76 1023.80 1023.84 1023.84 1023.84 1023.92 1023.96 1024.00 1024.08 1024.12 1024.12 1024.20 1024.28 1024.40 1024.48 1024.60 1024.76 1024.88 1025.00 1025.12 1025.20 1025.24 1025.24 1025.24 1025.28 1025.36 1025.40 1025.48 1025.56 1025.68 1025.76 1025.84 1025.92 1025.92 1025.88 1025.84 1025.84 1025.84 1025.80 1025.72 1025.68 1025.60 1025.52 1025.40 1025.28 1025.16 1025.04
1021.32 1021.44 1021.56 1021.68 1021.76 1021.84 1021.84 1021.88 1022.00 1022.12 1022.24 1022.40 1022.56 1022.72 1022.80 1022.96 1023.12 1023.28 1023.40 1023.52 1023.56 1023.64 1023.68 1023.68 1023.72 1023.76 1023.84 1023.88 1023.92 1023.96 1024.00 1024.04 1024.08 1024.12 1024.24 1024.36 1024.44 1024.60 1024.80 1024.92 1025.00 1025.12 1025.20 1025.24 1025.28 1025.28 1025.28 1025.36 1025.40 1025.48 1025.56 1025.72 1025.84 1025.88 1025.92 1025.96 1025.92 1025.88 1025.84 1025.84 1025.76 1025.68 1025.64 1025.56 1025.48 1025.40 1025.28 1025.24 1025.12
1021.16 1021.28 1021.44 1021.56 1021.64 1021.68 1021.68 1021.80 1021.92 1022.00 1022.16 1022.32 1022.44 1022.56 1022.76 1022.92 1023.08 1023.24 1023.36 1023.44 1023.52 1023.56 1023.64 1023.68 1023.68 1023.72 1023.84 1023.88 1023.88 1023.88 1023.88 1023.96 1024.00 1024.12 1024.20 1024.28 1024.40 1024.56 1024.76 1024.88 1025.00 1025.12 1025.16 1025.20 1025.28 1025.28 1025.32 1025.40 1025.48 1025.56 1025.60 1025.68 1025.84 1025.92 1025.92 1025.96 1025.92 1025.88 1025.84 1025.80 1025.72 1025.68 1025.60 1025.56 1025.44 1025.40 1025.32 1025.28 1025.16
1021.00 1021.16 1021.32 1021.40 1021.52 1021.56 1021.60 1021.68 1021.80 1021.96 1022.08 1022.24 1022.32 1022.52 1022.72 1022.92 1023.12 1023.24 1023.32 1023.40 1023.44 1023.52 1023.56 1023.56 1023.60 1023.68 1023.76 1023.80 1023.84 1023.84 1023.84 1023.88 1023.96 1024.00 1024.12 1024.24 1024.40 1024.60 1024.76 1024.84 1024.92 1025.04 1025.12 1025.20 1025.24 1025.32 1025.40 1025.44 1025.52 1025.56 1025.60 1025.68 1025.80 1025.84 1025.88 1025.92 1025.92 1025.88 1025.84 1025.76 1025.68 1025.64 1025.56 1025.56 1025.48 1025.40 1025.36 1025.28 1025.20
1020.88 1021.00 1021.12 1021.28 1021.36 1021.44 1021.52 1021.60 1021.68 1021.84 1022.00 1022.12 1022.32 1022.56 1022.76 1022.96 1023.12 1023.16 1023.24 1023.28 1023.32 1023.36 1023.36 1023.40 1023.52 1023.56 1023.64 1023.68 1023.72 1023.80 1023.84 1023.84 1023.92 1024.00 1024.08 1024.20 1024.40 1024.56 1024.72 1024.84 1024.92 1025.00 1025.12 1025.16 1025.24 1025.28 1025.40 1025.44 1025.56 1025.56 1025.60 1025.68 1025.76 1025.84 1025.84 1025.88 1025.84 1025.84 1025.80 1025.72 1025.68 1025.64 1025.56 1025.52 1025.44 1025.40 1025.36 1025.28 1025.20
1020.76 1020.88 1021.00 1021.12 1021.24 1021.36 1021.44 1021.56 1021.64 1021.76 1021.92 1022.12 1022.40 1022.60 1022.80 1023.00 1023.04 1023.12 1023.12 1023.20 1023.20 1023.28 1023.28 1023.40 1023.44 1023.52 1023.56 1023.64 1023.68 1023.68 1023.72 1023.84 1023.88 1023.92 1024.00 1024.12 1024.28 1024.52 1024.68 1024.76 1024.92 1025.04 1025.12 1025.12 1025.20 1025.28 1025.36 1025.40 1025.48 1025.56 1025.56 1025.60 1025.68 1025.76 1025.84 1025.84 1025.84 1025.80 1025.72 1025.68 1025.64 1025.60 1025.56 1025.48 1025.40 1025.40 1025.32 1025.28 1025.20
1020.68 1020.80 1020.92 1021.00 1021.12 1021.28 1021.36 1021.48 1021.56 1021.72 1021.96 1022.24 1022.52 1022.72 1022.84 1022.96 1023.00 1023.08 1023.12 1023.12 1023.12 1023.20 1023.28 1023.32 1023.40 1023.48 1023.56 1023.56 1023.60 1023.64 1023.68 1023.76 1023.80 1023.84 1023.88 1024.00 1024.20 1024.40 1024.60 1024.72 1024.88 1025.00 1025.08 1025.08 1025.12 1025.24 1025.32 1025.40 1025.44 1025.48 1025.52 1025.52 1025.60 1025.72 1025.76 1025.76 1025.76 1025.72 1025.72 1025.68 1025.64 1025.56 1025.48 1025.44 1025.40 1025.36 1025.28 1025.28 1025.16
1020.56 1020.72 1020.84 1021.00 1021.12 1021.20 1021.32 1021.44 1021.56 1021.84 1022.12 1022.40 1022.64 1022.76 1022.84 1022.96 1023.00 1023.04 1023.04 1023.00 1023.08 1023.12 1023.20 1023.24 1023.28 1023.32 1023.36 1023.40 1023.44 1023.56 1023.64 1023.68 1023.72 1023.76 1023.84 1023.92 1024.08 1024.32 1024.56 1024.72 1024.84 1024.92 1025.00 1025.04 1025.12 1025.20 1025.28 1025.36 1025.40 1025.40 1025.40 1025.44 1025.56 1025.64 1025.68 1025.72 1025.72 1025.72 1025.72 1025.68 1025.64 1025.56 1025.44 1025.40 1025.36 1025.32 1025.28 1025.20 1025.16
1020.44 1020.64 1020.80 1020.96 1021.08 1021.20 1021.32 1021.52 1021.72 1022.08 1022.40 1022.60 1022.72 1022.84 1022.88 1022.92 1022.96 1023.00 1023.00 1022.96 1023.00 1023.08 1023.12 1023.16 1023.16 1023.24 1023.28 1023.28 1023.36 1023.44 1023.56 1023.56 1023.64 1023.68 1023.76 1023.84 1024.04 1024.28 1024.48 1024.60 1024.76 1024.84 1024.88 1025.00 1025.08 1025.12 1025.20 1025.28 1025.32 1025.32 1025.36 1025.40 1025.48 1025.56 1025.64 1025.72 1025.76 1025.80 1025.80 1025.72 1025.64 1025.56 1025.48 1025.40 1025.36 1025.28 1025.20 1025.16 1025.12
1020.36 1020.60 1020.84 1021.00 1021.08 1021.16 1021.36 1021.68 1022.00 1022.32 1022.56 1022.72 1022.76 1022.84 1022.84 1022.84 1022.84 1022.84 1022.84 1022.88 1023.00 1023.04 1023.12 1023.16 1023.20 1023.24 1023.28 1023.32 1023.36 1023.40 1023.48 1023.52 1023.60 1023.68 1023.72 1023.84 1023.96 1024.16 1024.40 1024.56 1024.68 1024.76 1024.84 1024.92 1025.00 1025.08 1025.12 1025.16 1025.24 1025.28 1025.28 1025.36 1025.40 1025.52 1025.60 1025.68 1025.76 1025.80 1025.80 1025.76 1025.68 1025.64 1025.56 1025.44 1025.36 1025.28 1025.20 1025.16 1025.12
1020.32 1020.56 1020.80 1020.92 1021.04 1021.20 1021.48 1021.88 1022.20 1022.44 1022.64 1022.72 1022.80 1022.84 1022.84 1022.84 1022.76 1022.76 1022.76 1022.84 1022.96 1023.08 1023.12 1023.20 1023.24 1023.24 1023.28 1023.32 1023.36 1023.40 1023.40 1023.44 1023.56 1023.64 1023.68 1023.76 1023.84 1024.00 1024.28 1024.48 1024.60 1024.72 1024.76 1024.84 1024.92 1025.00 1025.00 1025.08 1025.12 1025.16 1025.20 1025.28 1025.36 1025.48 1025.56 1025.68 1025.72 1025.76 1025.80 1025.80 1025.76 1025.68 1025.56 1025.48 1025.36 1025.28 1025.20 1025.12 1025.04
1020.28 1020.44 1020.68 1020.84 1021.08 1021.36 1021.68 1022.08 1022.32 1022.52 1022.64 1022.72 1022.84 1022.84 1022.84 1022.76 1022.72 1022.72 1022.72 1022.80 1022.92 1023.04 1023.12 1023.20 1023.20 1023.24 1023.24 1023.28 1023.32 1023.36 1023.36 1023.32 1023.40 1023.52 1023.64 1023.68 1023.76 1023.92 1024.12 1024.40 1024.56 1024.68 1024.72 1024.76 1024.80 1024.84 1024.88 1024.96 1025.00 1025.04 1025.08 1025.16 1025.32 1025.44 1025.56 1025.60 1025.68 1025.72 1025.76 1025.76 1025.72 1025.68 1025.56 1025.48 1025.40 1025.28 1025.24 1025.12 1025.00
1020.16 1020.32 1020.56 1020.84 1021.24 1021.56 1021.88 1022.16 1022.40 1022.52 1022.64 1022.76 1022.84 1022.84 1022.76 1022.68 1022.64 1022.68 1022.72 1022.76 1022.84 1023.00 1023.12 1023.12 1023.16 1023.16 1023.16 1023.20 1023.28 1023.32 1023.32 1023.28 1023.32 1023.40 1023.52 1023.64 1023.68 1023.80 1024.00 1024.28 1024.44 1024.56 1024.64 1024.60 1024.68 1024.72 1024.80 1024.84 1024.88 1024.88 1024.96 1025.08 1025.24 1025.32 1025.40 1025.52 1025.60 1025.68 1025.72 1025.76 1025.72 1025.68 1025.56 1025.44 1025.36 1025.28 1025.24 1025.12 1024.88
1020.12 1020.36 1020.68 1021.08 1021.40 1021.68 1021.92 1022.12 1022.32 1022.52 1022.64 1022.76 1022.84 1022.76 1022.68 1022.64 1022.60 1022.64 1022.68 1022.72 1022.80 1022.88 1023.00 1023.08 1023.12 1023.12 1023.12 1023.16 1023.24 1023.28 1023.32 1023.32 1023.32 1023.36 1023.40 1023.52 1023.56 1023.64 1023.84 1024.08 1024.28 1024.44 1024.48 1024.48 1024.52 1024.60 1024.68 1024.72 1024.72 1024.72 1024.84 1025.04 1025.12 1025.20 1025.28 1025.40 1025.52 1025.68 1025.72 1025.76 1025.72 1025.68 1025.56 1025.44 1025.40 1025.28 1025.24 1025.12 1024.96
1020.28 1020.60 1020.96 1021.24 1021.48 1021.68 1021.92 1022.12 1022.40 1022.56 1022.68 1022.68 1022.64 1022.60 1022.56 1022.56 1022.56 1022.60 1022.64 1022.72 1022.80 1022.84 1022.92 1023.00 1023.04 1023.04 1023.12 1023.16 1023.20 1023.28 1023.32 1023.36 1023.36 1023.40 1023.40 1023.40 1023.48 1023.56 1023.68 1023.84 1024.04 1024.16 1024.28 1024.32 1024.40 1024.48 1024.52 1024.56 1024.56 1024.60 1024.72 1024.96 1025.00 1025.04 1025.12 1025.28 1025.44 1025.60 1025.68 1025.68 1025.68 1025.64 1025.56 1025.48 1025.40 1025.28 1025.24 1025.12 1025.00
Wind_Speed
4 4 3 3 3 2 2 2 2 2 2 2 2 2 2 2 2 1 1 1 1 1 1 1 1 1 1 1 2 2 2 1 1 2 2 1 1 1 1 1 1 1 1 1 1 1 1 1 1 1 1 1 1 1 1 1 1 0 0 0 1 2 2 2 1 1 1 1 1
4 4 3 3 3 2 2 2 2 1 1 1 2 2 2 2 2 2 1 1 1 1 0 0 0 0 0 1 1 2 2 2 2 1 1 1 1 1 1 1 1 1 1 1 1 1 0 1 1 0 1 1 1 1 1 1 1 1 1 1 1 1 2 2 1 0 0 0 1
4 4 3 2 2 2 2 2 2 1 1 1 1 2 2 2 2 2 1 1 1 1 1 0 0 0 0 0 1 1 2 2 2 1 1 1 0 0 0 0 0 0 0 0 0 0 0 1 1 1 1 1 1 1 1 1 1 2 2 1 1 1 1 1 0 0 0 1 1
4 4 3 2 2 2 2 2 2 2 1 1 1 2 2 2 2 2 2 1 1 1 1 1 0 0 0 0 0 0 1 1 2 2 1 1 1 0 0 1 0 0 0 0 0 0 1 1 1 1 1 1 1 1 1 0 1 1 2 1 1 1 1 1 0 0 0 1 1
4 3 3 3 3 3 3 3 3 2 2 1 2 2 2 2 2 2 2 2 1 1 0 0 0 0 0 1 1 1 0 0 1 2 2 1 1 1 1 1 1 0 0 1 1 1 1 1 1 1 1 2 1 1 1 1 1 2 1 1 1 1 1 1 1 0 0 1 1
3 2 2 2 3 3 2 2 3 2 2 2 2 2 2 2 2 2 2 2 1 0 0 0 0 1 1 1 1 1 1 1 1 1 2 2 1 1 1 1 0 1 1 1 2 2 2 1 1 1 1 1 1 1 1 2 2 2 1 1 1 1 1 1 0 0 1 1 1
3 3 3 3 3 3 2 2 2 2 2 2 2 2 2 2 3 3 2 2 1 1 1 0 0 0 0 1 1 1 1 1 1 1 2 2 1 1 1 0 1 1 2 2 3 3 3 2 1 1 1 1 1 1 1 2 2 2 2 1 0 1 1 1 0 0 1 1 2
4 3 3 3 3 3 3 2 2 2 2 2 2 3 3 3 3 3 2 2 1 1 1 1 1 1 0 0 1 1 1 1 1 0 1 1 1 1 0 0 1 2 3 3 4 4 4 3 2 1 1 1 1 1 1 2 3 3 2 1 0 0 1 1 1 0 0 1 2
4 4 3 3 3 3 3 3 3 3 3 3 3 3 4 4 4 3 3 2 2 2 2 1 1 1 1 0 0 1 1 1 1 0 0 1 1 0 0 1 2 3 4 4 5 5 4 2 1 1 1 1 1 1 1 2 3 3 2 1 0 0 1 1 1 1 1 1 2
5 5 4 4 3 3 3 3 4 4 4 4 4 4 4 4 4 3 3 2 2 2 1 1 1 1 1 1 1 0 0 0 0 0 0 0 0 0 1 2 3 3 4 4 4 3 2 0 1 1 0 1 1 1 1 2 3 2 1 1 1 1 1 1 1 1 1 1 2
6 5 5 4 4 4 4 4 4 4 4 4 4 4 4 4 3 3 3 3 2 2 2 2 2 2 2 1 1 1 0 0 0 0 0 1 1 2 2 3 3 3 3 2 2 1 1 1 1 1 1 0 1 1 1 2 2 2 1 1 1 1 1 2 2 1 1 2 2
7 6 5 5 5 5 4 4 3 3 3 3 3 3 3 3 3 3 3 3 3 2 2 2 2 2 2 1 1 1 1 1 1 1 2 2 3 3 4 3 2 1 1 1 0 1 1 1 1 1 1 1 0 1 1 2 2 1 1 1 1 1 1 2 2 2 2 2 2
6 6 5 5 5 5 4 4 3 3 3 3 3 3 3 3 3 3 3 4 3 2 2 2 2 3 2 1 1 1 1 1 2 2 3 4 4 4 3 1 0 0 0 0 1 1 1 1 1 0 1 1 1 1 1 2 2 1 1 1 1 1 2 3 3 3 2 2 2
6 5 5 5 5 4 4 3 3 3 3 3 3 3 3 3 3 3 3 4 3 3 2 2 2 2 2 2 1 0 1 2 2 3 4 4 3 2 1 0 0 0 0 1 1 1 1 0 0 1 1 1 2 1 2 2 2 2 1 1 1 2 2 3 3 2 2 2 2
5 5 5 5 4 4 4 4 3 3 3 3 3 3 3 3 3 3 3 4 3 3 2 2 2 2 2 2 1 1 1 2 3 3 3 2 1 0 1 1 0 1 1 1 1 1 1 1 1 1 1 2 2 2 2 2 2 2 2 2 2 2 2 2 2 2 2 2 3
5 5 5 4 4 4 4 4 3 3 3 3 3 3 3 3 3 3 3 4 3 3 3 3 2 2 1 1 1 1 1 2 3 2 2 1 1 0 0 1 1 1 1 1 2 1 1 1 1 1 2 2 2 2 2 1 1 2 2 2 2 2 2 2 2 2 2 2 2
6 5 5 5 5 5 5 5 4 4 4 4 4 3 3 3 3 3 3 4 3 3 3 3 2 2 1 1 1 1 1 2 2 2 1 1 1 0 1 1 1 1 1 2 2 2 2 2 2 1 1 1 2 2 2 2 2 2 2 2 2 1 1 1 1 2 2 2 2
6 6 6 6 6 6 6 6 5 5 5 5 4 4 3 3 3 3 3 3 3 4 3 3 3 2 2 2 2 2 2 2 2 2 2 2 1 1 0 1 1 1 2 2 2 3 3 3 2 2 1 1 2 2 2 2 2 2 1 1 0 0 0 0 1 1 2 2 3
6 7 7 7 7 7 7 7 6 6 5 4 4 4 3 3 4 3 3 3 3 4 4 3 3 3 3 3 2 2 2 3 3 3 2 2 1 1 1 1 2 2 3 3 3 4 3 3 2 2 1 1 1 1 1 1 1 1 1 1 2 1 1 1 1 2 2 3 4
7 7 8 8 8 8 7 7 6 5 4 4 4 4 4 3 4 4 3 3 3 4 4 4 3 3 2 3 2 2 2 3 3 3 2 2 1 1 1 2 2 3 4 4 4 4 3 3 2 1 1 0 0 1 1 2 2 2 2 2 2 2 2 2 2 3 3 4 4
7 8 8 8 8 7 6 5 5 4 4 4 4 4 4 3 3 3 3 3 4 4 3 3 3 3 3 3 3 3 3 3 3 3 3 2 2 2 2 3 3 3 3 3 2 2 2 1 0 1 1 2 2 3 3 3 3 3 3 2 2 2 3 3 3 4 4 5 5
7 7 7 7 7 6 5 4 4 4 4 4 4 4 3 3 3 3 3 3 3 3 3 3 3 3 3 3 3 3 3 2 2 2 2 2 2 2 3 3 2 1 1 3 3 2 2 2 2 3 3 4 4 4 4 4 4 4 3 4 4 4 4 4 4 4 5 5 6
7 7 6 6 5 4 4 4 4 4 4 4 4 3 3 3 3 3 3 2 2 2 2 2 3 3 4 4 4 3 2 2 1 1 2 2 2 2 2 1 1 3 4 4 3 3 3 3 4 5 5 5 5 5 4 4 4 4 4 4 4 5 5 4 4 5 5 6 6
7 6 5 4 4 4 4 4 5 4 4 4 4 4 4 3 3 2 2 2 2 2 2 2 2 3 3 3 3 3 3 2 2 1 2 2 2 2 1 1 4 5 4 4 4 5 5 4 4 5 5 5 5 4 4 4 4 4 4 4 4 4 4 5 5 5 6 6 6
7 6 4 3 3 4 4 5 5 5 4 4 4 4 4 3 3 3 2 2 1 1 2 2 2 2 2 2 2 3 3 3 2 2 2 2 2 1 1 4 5 4 4 5 7 8 8 6 5 5 5 5 4 4 4 3 3 3 2 3 3 4 4 5 5 6 6 7 7
6 5 4 4 4 5 5 6 6 5 5 4 4 4 4 3 3 3 3 2 1 1 1 2 2 2 2 2 2 2 2 2 2 3 2 2 1 1 3 4 4 4 4 6 9 10 10 10 8 6 5 4 4 3 3 3 2 2 2 2 3 3 4 4 5 6 6 6 7
5 5 4 5 6 6 6 6 6 5 5 5 4 4 4 3 3 3 3 2 1 1 1 1 1 2 2 2 2 2 2 2 2 2 2 2 2 3 4 5 4 4 5 8 9 10 10 10 9 8 6 3 3 2 1 2 2 2 2 2 3 3 3 4 5 6 6 6 6
5 5 5 6 7 7 7 6 5 5 5 5 4 4 4 4 4 3 2 2 1 1 0 1 1 1 1 1 2 2 2 2 2 2 2 3 4 5 6 5 4 5 7 9 9 9 9 9 8 7 5 3 2 1 0 1 2 2 2 2 3 3 4 4 5 5 6 5 5
6 6 7 8 8 7 6 5 5 5 5 5 4 4 4 4 4 3 2 2 1 1 1 1 1 1 1 1 2 2 2 2 2 2 3 3 4 5 6 6 6 7 8 10 9 9 9 8 7 6 4 2 1 0 1 1 1 2 2 2 3 3 4 4 5 5 5 4 3
7 7 7 8 7 5 4 4 5 5 5 5 5 5 5 4 3 2 2 2 2 2 2 2 1 1 1 2 2 2 2 2 2 2 3 4 4 5 6 6 6 7 9 10 9 9 8 7 6 4 2 1 0 1 1 1 1 2 2 2 3 4 4 5 5 5 4 3 2
7 7 7 7 5 4 4 4 5 5 5 6 6 5 4 3 2 2 2 2 2 2 2 2 1 2 2 2 2 2 2 1 2 3 4 5 5 6 6 6 6 7 9 10 10 9 8 7 5 3 1 1 1 1 1 1 1 1 2 2 3 4 4 4 4 4 3 2 2
7 7 6 5 4 4 4 4 5 6 6 6 5 4 3 2 2 2 2 3 2 2 1 1 1 2 2 2 2 2 2 2 2 3 4 5 6 6 6 7 7 7 8 11 10 9 8 6 5 3 2 2 2 1 1 1 1 1 2 3 4 4 4 4 3 3 2 2 2
7 6 5 4 4 4 4 5 6 6 6 5 4 3 3 2 2 2 2 2 2 2 2 2 2 2 2 2 2 2 2 2 3 3 4 5 6 6 7 6 6 7 9 10 10 9 7 6 5 3 2 2 1 1 1 0 1 2 2 3 4 4 4 4 3 2 2 2 2
6 5 4 4 4 4 4 5 6 6 5 4 3 3 2 2 2 2 2 2 2 2 2 2 3 3 3 3 3 2 2 2 3 3 4 5 7 7 6 5 5 7 9 10 10 9 8 6 5 4 3 2 1 1 1 1 2 2 3 4 4 4 4 3 3 2 2 3 2
4 4 3 4 4 4 4 5 5 5 4 3 3 2 2 2 2 2 2 2 2 2 1 2 2 2 2 2 2 2 3 3 3 3 4 5 6 7 7 6 6 8 11 11 10 9 8 7 5 4 3 2 2 1 2 2 2 2 3 4 5 5 4 3 3 3 3 3 3
4 3 4 4 4 3 4 5 4 4 3 2 2 2 2 2 2 2 2 2 2 1 1 1 1 1 1 1 1 2 2 3 3 3 3 4 5 6 6 6 7 9 12 11 11 10 8 7 6 5 4 3 2 2 2 1 1 2 3 4 4 4 4 3 4 4 4 4 4
4 4 4 3 3 3 5 4 3 2 2 2 2 2 2 2 2 2 2 2 1 1 1 1 1 1 1 1 1 2 2 3 3 3 3 4 5 6 7 7 7 9 11 12 11 10 9 8 7 6 4 3 2 2 2 1 1 1 2 3 4 4 3 3 4 4 5 5 6
4 4 3 3 4 5 5 4 3 2 2 1 1 2 2 2 2 1 1 2 2 2 1 1 1 1 2 2 2 2 2 3 3 3 4 4 5 6 7 7 7 8 10 12 12 11 10 9 8 7 5 3 3 2 2 1 1 1 2 2 3 3 3 3 3 4 5 6 8
4 4 5 6 6 5 4 3 2 2 1 1 1 2 2 2 1 1 2 2 3 2 2 2 2 2 2 2 2 2 2 2 3 3 4 4 5 6 7 7 7 8 9 12 12 12 11 10 9 8 6 4 4 3 3 2 1 0 1 1 2 3 3 3 3 4 5 6 10
5 7 8 7 6 5 4 3 2 2 1 1 2 3 2 2 2 2 2 2 2 2 2 2 2 2 2 2 2 1 1 1 1 2 3 4 5 7 7 7 8 9 10 12 13 13 12 11 10 9 7 5 4 3 3 3 2 1 0 1 1 2 3 3 3 4 4 6 8
7 8 8 6 5 4 4 3 2 1 2 3 3 3 2 2 1 1 1 1 1 1 2 2 2 2 2 2 2 2 1 0 1 2 3 4 5 6 7 7 8 9 10 12 13 14 13 12 10 9 8 5 4 3 3 3 3 1 1 2 1 1 2 3 3 3 4 5 5
Wind_Direction
105 105 106 108 109 107 105 100 97 99 101 108 110 111 109 104 101 96 90 94 111 138 172 192 194 197 191 167 141 131 122 115 111 113 118 126 146 171 203 242 253 259 262 265 251 228 194 160 144 152 178 185 190 213 230 226 209 195 114 66 79 82 80 71 59 35 8 341 283
112 112 110 107 103 100 99 102 97 92 95 112 123 123 119 112 110 105 97 95 122 140 165 222 213 182 163 169 143 133 127 124 124 123 126 143 172 189 206 242 265 270 262 255 250 234 206 162 144 175 214 211 191 230 253 247 154 103 80 65 72 80 80 72 68 59 304 318 314
124 122 118 114 106 105 111 125 124 120 116 122 121 118 116 115 115 114 112 112 104 90 70 26 3 9 149 182 138 133 133 137 136 132 133 158 193 211 215 290 337 329 269 217 217 215 203 181 171 187 205 210 194 231 256 279 96 96 95 88 89 83 79 71 68 75 40 4 352
132 134 134 134 131 134 138 140 135 135 137 134 109 103 105 111 111 111 107 93 68 59 52 39 3 357 114 80 30 61 134 141 137 136 140 158 178 178 160 131 99 43 277 226 276 261 239 206 195 194 195 189 190 207 225 235 104 105 111 127 116 104 97 90 98 83 54 16 345
135 137 138 139 141 143 142 132 128 130 131 118 95 86 88 96 99 96 88 74 65 56 42 50 19 17 36 54 25 359 342 140 139 142 148 162 173 171 153 126 111 59 314 309 301 288 273 255 231 205 191 180 180 187 188 165 118 107 108 119 118 118 117 112 107 81 51 9 328
131 128 125 128 129 126 121 118 122 123 117 97 89 85 86 93 95 95 95 100 121 164 200 124 45 19 15 21 9 349 324 283 185 164 159 164 167 150 116 84 47 346 317 301 291 283 275 262 250 218 191 170 172 178 171 144 113 99 89 75 108 119 114 97 87 58 35 356 324
130 127 124 124 120 116 111 111 114 110 103 94 101 110 118 115 111 115 124 141 158 181 195 175 148 59 2 356 336 315 292 270 239 187 162 151 141 118 88 51 349 314 298 286 280 274 266 249 237 216 186 155 158 167 152 123 108 100 93 78 122 124 114 109 119 77 20 329 307
130 133 135 134 128 125 125 127 125 122 120 121 134 143 145 136 131 133 141 150 170 189 194 185 183 181 188 298 297 292 286 280 279 257 136 125 113 102 81 11 310 293 283 276 273 268 261 248 226 197 174 158 164 171 147 121 109 105 104 118 216 191 149 166 176 177 241 279 288
136 141 145 144 143 145 149 154 155 159 163 166 165 162 157 147 144 146 154 171 188 189 183 175 171 155 122 64 316 306 302 304 308 322 67 110 104 99 311 291 287 282 279 279 279 276 271 254 196 156 156 159 169 178 159 127 110 108 116 147 194 243 243 214 207 213 231 253 275
146 149 150 153 162 168 172 174 173 173 172 173 172 167 160 153 153 159 168 177 172 165 159 162 139 112 87 63 31 359 345 339 239 187 141 122 144 236 261 267 271 276 282 293 299 300 303 32 74 85 129 164 170 171 156 124 111 112 127 162 177 233 267 265 247 243 245 247 259
152 153 156 163 176 183 185 184 181 176 171 170 169 164 160 157 162 167 168 155 140 141 154 162 134 114 96 78 63 45 33 34 39 340 309 290 271 263 261 262 267 278 295 316 328 360 49 66 55 26 330 247 174 158 139 118 109 111 132 184 180 215 264 275 268 260 252 246 254
152 154 160 170 182 188 191 188 180 171 164 162 162 162 161 164 167 164 153 135 132 144 163 160 131 115 102 88 66 38 11 352 334 318 304 290 279 272 269 271 281 299 324 330 38 73 76 74 63 14 317 287 214 155 139 123 115 120 148 214 200 233 265 272 271 264 257 252 262
151 155 163 175 186 191 191 185 174 162 156 157 160 162 164 169 165 155 142 131 137 148 159 149 127 116 110 104 81 25 343 323 313 304 295 286 280 279 281 297 334 74 111 92 66 65 65 69 74 335 283 278 248 195 165 145 137 147 174 217 230 250 260 266 268 270 272 278 278
150 156 167 181 190 192 188 180 170 159 155 158 165 165 165 166 160 148 138 136 144 150 150 137 125 124 126 128 119 357 303 298 295 292 288 284 284 286 292 122 130 109 59 14 28 35 37 18 253 239 245 254 245 222 193 167 161 168 182 198 219 240 252 261 268 277 288 295 290
153 163 174 187 193 192 185 176 170 163 162 167 173 170 163 161 157 147 140 142 150 151 144 131 131 138 143 142 151 217 273 283 283 283 282 283 281 220 150 136 72 31 8 350 345 338 319 275 251 239 237 242 242 235 217 189 176 175 179 189 205 224 242 261 274 286 293 292 292
162 173 185 197 200 196 188 181 176 172 172 176 177 169 162 160 158 148 144 147 150 146 139 136 144 152 161 164 180 218 256 270 271 270 264 251 220 160 97 45 14 355 336 323 313 302 287 265 243 233 232 239 244 243 235 212 186 179 183 191 199 214 237 266 280 283 281 278 284
172 183 195 206 208 204 196 188 183 180 179 180 176 168 162 160 157 152 149 151 147 142 142 151 157 162 171 198 208 219 236 252 250 237 214 194 173 106 43 10 329 305 295 292 288 283 277 265 245 229 228 241 248 246 236 215 195 190 194 199 200 210 242 270 261 262 268 279 287
181 191 202 212 213 209 202 194 188 184 181 178 173 168 162 159 157 157 156 153 146 147 152 166 170 172 179 202 214 215 212 216 215 207 194 180 162 141 119 283 272 270 268 266 264 261 258 253 244 238 238 251 251 240 223 203 196 194 194 195 124 39 6 286 254 260 276 296 300
189 198 207 214 217 213 206 197 189 184 179 173 167 163 160 159 156 155 154 155 153 154 158 171 179 183 188 200 209 207 198 192 192 192 189 179 166 166 200 246 258 261 260 258 255 253 250 246 242 240 243 253 250 237 213 180 151 97 58 42 33 22 360 319 301 302 308 313 311
195 203 210 216 217 213 206 195 185 177 169 162 158 157 158 159 152 150 154 167 166 162 161 169 180 190 198 201 204 206 200 188 183 183 183 179 176 195 221 239 251 256 257 258 259 258 254 247 237 226 209 182 45 46 52 56 51 47 42 37 25 6 347 331 326 325 322 320 314
201 207 213 217 215 209 199 186 173 163 155 152 153 155 156 154 149 153 163 174 170 164 162 170 180 189 197 201 205 209 207 193 181 178 180 180 194 212 225 233 244 254 264 281 291 290 282 265 208 96 81 72 67 63 59 55 49 41 32 21 8 355 344 339 333 328 322 317 312
206 211 214 215 209 200 187 169 157 151 149 151 152 151 149 147 152 161 168 169 161 160 163 173 182 188 194 198 202 205 205 194 183 180 180 185 202 218 228 233 240 270 2 16 9 8 16 36 52 61 66 67 65 62 58 53 45 33 20 7 357 349 342 336 330 323 316 311 306
210 214 214 212 203 191 175 159 150 148 147 149 147 145 145 147 154 157 157 150 149 155 168 180 187 192 196 198 195 191 186 182 189 194 195 196 212 226 233 227 94 69 58 46 39 40 46 49 49 53 58 62 58 53 48 43 36 26 12 359 350 341 334 327 321 316 311 306 303
212 213 211 206 198 188 176 162 154 151 149 150 148 147 146 147 146 141 135 131 140 156 175 189 195 198 199 196 185 175 168 168 187 215 230 229 230 233 222 90 82 78 73 62 56 57 60 59 54 53 54 56 52 46 40 36 30 20 6 350 338 328 322 316 313 310 307 304 301
209 209 207 204 204 196 183 168 161 158 156 155 150 146 144 143 138 131 125 124 141 166 185 198 204 202 196 190 178 168 163 167 182 205 229 246 248 239 83 82 84 83 80 74 68 68 68 68 66 62 57 53 47 39 31 23 16 5 349 331 319 314 312 312 310 308 306 303 300
205 205 206 210 212 203 190 175 167 161 157 151 145 142 142 140 133 127 124 128 154 180 194 202 209 204 193 182 171 166 166 174 184 197 211 229 233 72 76 84 88 88 85 83 80 77 75 73 72 68 63 56 48 36 22 3 347 333 318 307 303 305 307 309 309 308 306 303 301
201 204 211 218 216 208 195 180 168 158 150 143 141 141 141 136 127 124 124 137 164 186 199 211 214 203 187 170 165 171 182 190 190 192 188 175 126 94 88 93 99 99 97 94 91 87 82 79 75 71 68 64 57 42 13 331 312 305 299 295 296 298 302 304 303 303 303 303 304
198 206 215 222 219 210 197 178 163 153 147 143 143 141 135 126 120 121 128 145 155 164 211 244 219 191 166 157 174 183 189 192 187 176 158 139 114 104 102 107 109 111 110 108 101 95 90 85 80 76 72 71 69 61 301 284 286 286 287 288 290 296 298 298 298 299 300 302 307
199 209 217 222 220 211 195 173 160 153 147 142 137 129 120 112 114 121 131 142 143 166 213 230 209 168 153 187 195 194 189 186 173 155 135 119 104 104 110 119 118 119 118 116 109 103 98 93 89 85 80 78 87 175 238 249 263 272 280 285 291 296 299 298 299 299 299 300 311
203 211 217 220 216 208 191 170 157 148 139 130 119 110 105 104 114 128 144 156 176 194 201 197 185 191 207 212 202 193 187 182 158 136 122 109 103 108 117 126 126 127 126 124 117 112 108 105 102 98 91 86 160 218 230 238 251 268 284 294 299 301 302 301 300 300 301 305 332
206 211 214 213 209 200 184 164 146 133 122 110 103 101 102 112 135 159 173 179 190 196 195 183 194 215 220 207 189 180 175 167 144 129 120 114 111 116 122 127 127 130 131 132 127 123 121 119 118 122 138 213 226 228 229 238 256 277 294 301 305 305 304 303 303 302 305 319 356
208 209 208 205 203 194 178 155 134 119 108 100 100 105 118 142 168 181 184 182 183 187 195 207 227 231 224 202 182 171 164 156 146 137 129 123 119 121 125 128 129 133 137 139 135 133 132 132 136 150 184 221 226 226 229 246 279 298 305 307 306 305 305 305 305 306 314 338 4
207 205 202 201 202 192 171 145 123 109 102 101 109 122 141 162 177 186 186 179 174 182 199 222 227 223 213 195 184 176 170 164 154 145 136 129 124 124 127 128 132 140 145 146 143 142 143 145 152 170 195 209 206 208 223 320 329 326 321 316 310 308 306 306 307 314 328 344 353
203 202 204 208 206 190 162 132 112 103 102 110 123 139 153 165 176 186 190 186 180 187 198 209 208 203 195 184 177 176 176 171 155 144 135 128 124 125 129 135 141 150 153 153 151 150 151 155 163 174 186 183 162 125 61 22 356 340 329 320 315 313 311 311 316 329 341 345 341
196 203 214 221 209 184 147 115 103 101 107 119 134 151 164 172 179 186 191 190 188 193 203 206 192 183 177 171 164 163 163 162 151 142 136 130 125 126 132 141 147 156 159 159 158 157 158 161 167 170 167 151 128 98 71 40 4 340 326 320 316 314 314 318 329 339 343 343 335
192 206 218 221 202 162 122 102 100 104 114 130 150 170 182 187 188 189 188 182 180 193 209 203 168 149 143 148 153 158 160 158 150 146 144 139 132 133 137 146 152 160 164 166 164 163 163 166 169 168 160 140 116 96 81 63 16 337 325 320 314 311 313 321 334 339 340 336 328
194 202 203 197 156 116 101 98 104 116 136 159 177 190 197 197 198 194 184 163 167 184 196 184 148 143 157 179 188 186 176 161 152 152 154 153 144 140 141 147 156 163 168 171 169 168 168 170 171 167 157 131 113 102 94 80 37 342 325 317 308 304 307 319 333 336 334 328 320
197 187 163 124 102 96 97 103 117 141 167 183 202 211 210 202 203 196 176 152 158 168 179 172 173 186 195 191 191 192 185 169 158 158 162 165 153 143 141 146 158 167 172 175 174 173 174 175 172 165 153 132 127 124 121 108 78 349 319 308 302 302 306 318 329 330 325 319 315
181 139 107 94 95 99 106 116 130 143 156 174 222 228 223 207 203 189 172 154 154 158 166 176 199 206 202 182 175 184 192 184 164 159 161 163 152 142 139 146 160 171 178 180 178 178 178 178 172 163 152 141 143 143 140 129 121 72 303 297 299 304 309 316 323 321 316 310 312
99 90 88 92 100 107 112 114 108 109 134 199 221 224 220 204 196 182 162 147 148 153 163 182 202 205 193 163 156 167 195 217 169 155 152 152 147 142 142 149 163 174 181 183 181 181 181 180 172 164 156 149 153 151 143 130 123 125 276 277 290 303 310 312 314 312 309 304 308
77 81 87 94 97 98 97 91 89 132 204 214 215 212 203 184 171 153 136 126 140 155 170 187 202 200 182 154 146 148 160 195 185 159 151 147 147 148 151 155 166 173 179 181 183 184 183 181 173 167 162 161 160 152 139 125 124 138 218 250 257 280 300 306 308 306 303 300 301